Flag for United Kingdom Weather past 2 weeks in West Bromwich, England, United Kingdom

Now
41 °F

Partly sunny.


Feels Like: 36 °F
Forecast: 37 / 60 °F
Wind: 7 mph from Northeast

Location: Birmingham / Airport


UV Index: 0 (Low)

Visibility: N/A


Pressure: 30.12 "Hg

Humidity: 81%

Dew point: 36 °F

Location of West BromwichLocation

Historic Weather in West Bromwich

°F

West Bromwich temperature yesterday

Maximum temperature yesterday: 55 °F (at 3:50 PM)
Minimum temperature yesterday: 37 °F (at 5:50 AM)
Average temperature yesterday: 46 °F

Past Weeks' High & Low Weather Summary

 TemperatureHumidityPressure
High61 °F (Apr 16, 3:50 PM)100% (Apr 4, 7:50 AM)30.45 "Hg (Apr 4, 7:50 AM)
Low30 °F (Apr 15, 5:50 AM)44% (Apr 15, 4:20 PM)29.59 "Hg (Apr 7, 2:20 PM)
Average49 °F75%30.08 "Hg
* Reported Apr 4 7:20 AM — Apr 19 7:20 AM, West Bromwich, Weather by CustomWeather, © 2014

Note: Actual official high and low records may vary slightly from our data, if they occured in-between our weather recording intervals... More about our weather records

Advertising

Historic Weather Conditions — Data for Previous 24 hours

 ConditionsComfort  
Time TempWeatherWind HumidityBarometerVisibility
7:20 AM
Apr 19
36 °FScattered clouds.7 mph93%30.12 "HgN/A
6:50 AM36 °FPassing clouds.6 mph100%30.12 "HgN/A
6:20 AM32 °FPassing clouds.3 mph100%30.12 "HgN/A
5:50 AM30 °FClear.3 mph100%30.12 "Hg6 mi
5:20 AM30 °FIce fog.3 mph100%30.12 "Hg3 mi
4:50 AM30 °FIce fog.3 mph100%30.12 "Hg3 mi
4:20 AM32 °FClear.2 mph100%30.12 "Hg10 mi
3:50 AM32 °FChilly.2 mph100%30.12 "Hg4 mi
3:20 AM32 °FChilly.5 mph100%30.12 "HgN/A
2:50 AM32 °FChilly.3 mph100%30.12 "HgN/A
2:20 AM34 °FChilly.3 mph93%30.15 "HgN/A
1:50 AM34 °FChilly.3 mph100%30.15 "HgN/A
1:20 AM34 °FClear.3 mph100%30.15 "Hg10 mi
12:50 AM36 °FClear.2 mph93%30.15 "Hg10 mi
12:20 AM37 °FClear.5 mph87%30.15 "Hg10 mi
11:50 PM
Apr 18
39 °FClear.6 mph87%30.15 "Hg10 mi
11:20 PM41 °FClear.7 mph81%30.15 "Hg10 mi
10:50 PM39 °FClear.7 mph81%30.15 "Hg10 mi
10:20 PM39 °FClear.3 mph81%30.15 "Hg10 mi
9:50 PM41 °FClear.3 mph76%30.15 "Hg10 mi
9:20 PM45 °FClear.5 mph66%30.15 "Hg10 mi
8:50 PM46 °FPassing clouds.6 mph62%30.15 "HgN/A
8:20 PM48 °FSunny.6 mph58%30.15 "Hg10 mi
7:50 PM50 °FPassing clouds.6 mph54%30.15 "HgN/A
7:20 PM50 °FPassing clouds.9 mph54%30.15 "HgN/A
6:50 PM52 °FPassing clouds.7 mph50%30.15 "HgN/A
6:20 PM52 °FPassing clouds.8 mph50%30.15 "HgN/A
5:50 PM54 °FPassing clouds.7 mph47%30.15 "HgN/A
5:20 PM54 °FPassing clouds.7 mph47%30.15 "HgN/A
4:50 PM54 °FPassing clouds.8 mph47%30.15 "HgN/A
4:20 PM54 °FPassing clouds.8 mph47%30.15 "HgN/A
3:50 PM55 °FScattered clouds.10 mph47%30.15 "HgN/A
3:20 PM52 °FScattered clouds.9 mph50%30.18 "HgN/A
2:50 PM54 °FScattered clouds.7 mph47%30.18 "HgN/A
2:20 PM54 °FPassing clouds.8 mph47%30.18 "HgN/A
1:50 PM54 °FPassing clouds.6 mph44%30.18 "HgN/A
1:20 PM52 °FPassing clouds.9 mph47%30.18 "HgN/A
12:50 PM52 °FPassing clouds.9 mph47%30.18 "HgN/A
12:20 PM52 °FPassing clouds.10 mph50%30.18 "HgN/A
11:50 AM52 °FPassing clouds.10 mph54%30.18 "HgN/A
11:20 AM50 °FPassing clouds.7 mph54%30.18 "HgN/A
10:50 AM50 °FPassing clouds.8 mph58%30.18 "HgN/A
10:20 AM48 °FPassing clouds.10 mph62%30.18 "HgN/A
9:50 AM46 °FPassing clouds.9 mph66%30.18 "HgN/A
9:20 AM46 °FPassing clouds.12 mph66%30.18 "HgN/A
8:50 AM45 °FPassing clouds.10 mph71%30.18 "HgN/A
8:20 AM45 °FSunny.10 mph76%30.18 "Hg10 mi
Weather by CustomWeather, © 2014

See weather overview